Simultaneous Nadir Overpasses (SNOs) Predictions

Prediction of SNOs between GOES-16 and NOAA-20 Satellite Orbit:

Table of predicted SNOs for the next 14.0 days since TLE Epoch: 10/8/2022
Index Date Time (GOES-16) GOES-16 Lat,Lon NOAA-20 Lat,Lon Distance(km) Time Diff (sec)
1 10/08/2022 18:32:53 -0.05, -75.19 -0.54, -77.26 236.47 80
2 10/09/2022 18:16:48 -0.06, -75.20 0.48, -72.74 280.73 80
3 10/11/2022 06:35:57 0.05, -75.21 0.65, -78.01 318.97 80
4 10/12/2022 06:19:51 0.06, -75.22 -0.31, -73.47 198.45 80
5 10/13/2022 18:39:08 -0.05, -75.24 -0.83, -78.79 404.41 80
6 10/14/2022 18:23:04 -0.05, -75.25 0.20, -74.26 113.29 80
7 10/16/2022 06:42:11 0.04, -75.27 0.99, -79.53 485.62 80
8 10/17/2022 06:26:07 0.04, -75.28 -0.04, -75.00 32.28 80
9 10/19/2022 18:26:39 -0.03, -75.32 -0.11, -75.78 51.68 80
10 10/20/2022 18:10:33 -0.03, -75.34 0.86, -71.24 466.90 80
